Regional Weather Roundup
Issued by NWS Charleston, WV

Home | Current Version | Previous Version | Text Only | Print | Product List | Glossary Off
Versions: 1 2 3 4 5 6 7 8 9 10 11 12 13 14 15 16 17 18 19 20 21 22 23 24 25 26 27 28 29 30 31 32 33 34 35 36 37 38 39 40 41 42 43 44 45 46 47 48 49 50

846
ASUS41 KRLX 181510
RWRRLX
West Virginia Regional Weather Roundup
National Weather Service Charleston WV
1100 AM EDT FRI AUG 18 2017

Note: "fair" indicates few or no clouds below 12,000 feet with no
significant weather and/or obstructions to visibility.

WVZ003-181600-
Northern Panhandle of West Virginia

CITY           SKY/WX    TMP DP  RH WIND       PRES   REMARKS
WHEELING       PTSUNNY   76  72  87 W7        29.87R
$$

WVZ009-181600-
Northwest West Virginia

CITY           SKY/WX    TMP DP  RH WIND       PRES   REMARKS
PARKERSBURG    CLOUDY    77  73  87 VRB7      29.91S
$$

WVZ006-181600-
Western West Virginia

CITY           SKY/WX    TMP DP  RH WIND       PRES   REMARKS
HUNTINGTON     PTSUNNY   77  72  84 W5        29.91S
$$

WVZ015-181600-
West Central West Virginia

CITY           SKY/WX    TMP DP  RH WIND       PRES   REMARKS
CHARLESTON     CLOUDY    76  72  87 SW8       29.92S
$$

WVZ022-031-181600-
North Central West Virginia

CITY           SKY/WX    TMP DP  RH WIND       PRES   REMARKS
CLARKSBURG     CLOUDY    78  69  73 SW15      29.89S
MORGANTOWN     LGT RAIN  74  71  91 SW7       29.90R FOG
$$

WVZ025-035-042-045-181600-
Southern West Virginia

CITY           SKY/WX    TMP DP  RH WIND       PRES   REMARKS
BECKLEY        LGT RAIN  72  69  90 S7        30.01S
LOGAN          CLOUDY    75  73  94 SW6       29.97R
BLUEFIELD      PTSUNNY   74  67  78 SW10      30.04S
LEWISBURG      CLOUDY    75  69  81 SW8       30.00F
$$

WVZ047-181600-
Northern Mountains of West Virginia

CITY           SKY/WX    TMP DP  RH WIND       PRES   REMARKS
ELKINS         LGT RAIN  77  67  71 SW12      29.96R
$$

WVZ052-181600-
Eastern Panhandle of West Virginia

CITY           SKY/WX    TMP DP  RH WIND       PRES   REMARKS
MARTINSBURG    SUNNY     84  73  69 S8        29.85F
PETERSBURG     PTSUNNY   88  74  64 S5        29.87S HX  96
$$




USA.gov is the U.S. government's official web portal to all federal, state and local government web resources and services.